Weather reports worldwide

Advertisment
Logrono/Agoncillo, Spain (8084): temperature & dewpoint: 11.07.2019 09:00:00 - 17.07.2019 09:00:00 (CEST)Logrono/Agoncillo, Spain (8084): wind speed: 11.07.2019 09:00:00 - 17.07.2019 09:00:00 (CEST)Logrono/Agoncillo, Spain (8084): wind direction: 11.07.2019 09:00:00 - 17.07.2019 09:00:00 (CEST)Logrono/Agoncillo, Spain (8084): reduced air pressure: 11.07.2019 09:00:00 - 17.07.2019 09:00:00 (CEST)Logrono/Agoncillo, Spain (8084): visibility: 11.07.2019 09:00:00 - 17.07.2019 09:00:00 (CEST)
Date & Time tt [°C] td [°C] ff [km/h] ff [kn] dd ppp [hPa] vv [km]
17.07.2019 09:00:00 19,3 15,8 11 6 WSW 1015,7 -
17.07.2019 08:00:00 17,7 15,5 8 4 W 1015,9 15
17.07.2019 07:00:00 18,1 15,7 4 2 WSW 1015,9 -
17.07.2019 06:00:00 18,4 15,6 13 7 E 1015,2 -
17.07.2019 05:00:00 18,9 15,6 16 9 ESE 1014,9 -
17.07.2019 04:00:00 18,8 16,2 4 2 WNW 1016,1 -
17.07.2019 03:00:00 20,8 13,9 8 4 W 1016,4 -
17.07.2019 02:00:00 21,0 14,6 9 5 W 1016,3 -
17.07.2019 01:00:00 21,5 14,6 9 5 W 1015,9 -
17.07.2019 00:00:00 22,6 14,6 5 3 W 1015,4 -
16.07.2019 23:00:00 23,8 15,3 5 3 ENE 1015,0 20
16.07.2019 22:00:00 24,8 14,7 5 3 SW 1013,9 -
16.07.2019 21:00:00 26,1 15,0 4 2 W 1013,0 -
16.07.2019 20:00:00 28,1 15,0 8 4 W 1012,5 25
16.07.2019 19:00:00 29,2 13,9 8 4 W 1011,9 -
16.07.2019 18:00:00 31,5 11,3 4 2 W 1011,9 -
16.07.2019 17:00:00 30,8 10,7 4 2 N 1012,6 30
16.07.2019 16:00:00 30,0 10,1 5 3 W 1013,3 -
16.07.2019 15:00:00 28,6 9,6 4 2 SE 1014,2 -
16.07.2019 14:00:00 27,0 9,9 8 4 W 1014,9 30
16.07.2019 13:00:00 25,6 9,8 5 3 W 1015,7 -
16.07.2019 12:00:00 23,9 9,9 8 4 W 1016,2 -
16.07.2019 11:00:00 22,4 9,4 8 4 W 1016,8 22
16.07.2019 10:00:00 19,4 11,0 11 6 W 1017,3 -
16.07.2019 09:00:00 17,4 11,1 11 6 W 1017,9 -
16.07.2019 08:00:00 15,8 10,5 11 6 W 1018,0 22
16.07.2019 07:00:00 14,7 10,1 9 5 W 1018,0 -
16.07.2019 06:00:00 15,3 10,7 9 5 W 1017,7 -
16.07.2019 05:00:00 15,8 11,0 11 6 W 1017,4 -
16.07.2019 04:00:00 16,1 11,7 9 5 W 1017,8 -
16.07.2019 03:00:00 16,6 11,7 9 5 WSW 1018,1 -
16.07.2019 02:00:00 17,0 11,3 9 5 W 1018,1 -
16.07.2019 01:00:00 18,0 11,0 9 5 WSW 1017,8 -
16.07.2019 00:00:00 18,3 10,8 8 4 WSW 1017,5 -
15.07.2019 23:00:00 19,9 11,3 8 4 WSW 1017,0 20
15.07.2019 22:00:00 21,9 10,6 5 3 WSW 1016,1 -
15.07.2019 21:00:00 25,3 8,6 8 4 W 1015,1 -
15.07.2019 20:00:00 26,4 8,7 11 6 NW 1014,1 40
15.07.2019 19:00:00 27,4 7,2 11 6 NW 1013,3 -
15.07.2019 18:00:00 28,1 8,1 11 6 NW 1013,1 -
15.07.2019 17:00:00 28,1 8,0 11 6 NW 1013,3 30
15.07.2019 16:00:00 27,9 9,6 13 7 NNW 1013,7 -
15.07.2019 15:00:00 27,1 10,6 11 6 W 1013,8 -
15.07.2019 14:00:00 26,7 11,7 9 5 W 1014,1 30
15.07.2019 13:00:00 25,3 11,4 9 5 W 1014,8 -
15.07.2019 12:00:00 23,9 12,5 15 8 WSW 1015,2 -
15.07.2019 11:00:00 22,1 12,6 13 7 W 1015,8 15
15.07.2019 10:00:00 20,5 12,0 13 7 W 1016,3 -
15.07.2019 09:00:00 18,2 12,1 13 7 W 1016,7 -
15.07.2019 08:00:00 16,8 11,7 11 6 W 1016,7 15
15.07.2019 07:00:00 15,6 11,6 11 6 WSW 1016,5 -
15.07.2019 06:00:00 15,8 12,2 9 5 W 1016,2 -
15.07.2019 05:00:00 16,9 11,8 11 6 W 1015,8 -
15.07.2019 04:00:00 17,1 12,0 11 6 W 1016,1 -
15.07.2019 03:00:00 17,2 12,4 11 6 W 1016,5 -
15.07.2019 02:00:00 17,6 11,8 8 4 W 1016,6 -
15.07.2019 01:00:00 18,5 11,0 8 4 W 1016,6 -
15.07.2019 00:00:00 19,5 11,0 8 4 WNW 1016,5 -
14.07.2019 23:00:00 20,4 12,0 5 3 WSW 1016,1 30
14.07.2019 22:00:00 22,2 11,2 4 2 N 1015,4 -
14.07.2019 21:00:00 25,1 11,9 8 4 NNW 1014,3 -
14.07.2019 20:00:00 25,9 11,3 13 7 NW 1013,6 30
14.07.2019 19:00:00 27,1 12,4 13 7 NNW 1012,9 -
14.07.2019 18:00:00 27,7 12,4 11 6 NW 1012,9 -
14.07.2019 17:00:00 28,0 11,9 11 6 WNW 1012,7 20
14.07.2019 16:00:00 27,9 14,0 13 7 W 1012,7 -
14.07.2019 15:00:00 26,7 13,8 15 8 W 1013,1 -
14.07.2019 14:00:00 25,6 15,3 13 7 W 1013,7 30
14.07.2019 13:00:00 24,6 15,6 16 9 W 1014,1 -
14.07.2019 12:00:00 23,5 15,7 16 9 WSW 1014,5 -
14.07.2019 11:00:00 22,3 15,8 16 9 W 1014,8 20
14.07.2019 10:00:00 21,1 16,1 13 7 W 1014,6 -
14.07.2019 09:00:00 19,8 16,4 15 8 W 1014,4 -
14.07.2019 08:00:00 18,4 16,3 15 8 W 1014,0 -
14.07.2019 07:00:00 18,5 16,7 9 5 WSW 1013,9 -
14.07.2019 06:00:00 18,2 16,9 8 4 WSW 1013,5 -
14.07.2019 05:00:00 18,2 16,7 9 5 SW 1013,3 -
14.07.2019 04:00:00 18,5 16,8 11 6 W 1015,3 -
14.07.2019 03:00:00 18,2 16,9 11 6 NW 1015,6 -
14.07.2019 02:00:00 19,2 17,0 13 7 W 1017,4 -
14.07.2019 01:00:00 19,6 16,6 15 8 WNW 1015,1 -
14.07.2019 00:00:00 21,1 16,3 24 13 WSW 1016,2 -
13.07.2019 23:00:00 22,2 17,1 18 10 W 1014,0 20
13.07.2019 22:00:00 22,6 17,7 11 6 W 1012,5 -
13.07.2019 21:00:00 25,3 16,4 11 6 N 1010,1 -
13.07.2019 20:00:00 28,2 15,1 4 2 WNW 1009,5 25
13.07.2019 19:00:00 27,4 14,2 8 4 WSW 1010,1 -
13.07.2019 18:00:00 31,0 12,8 8 4 S 1010,6 -
13.07.2019 17:00:00 27,7 12,9 15 8 ENE 1011,2 25
13.07.2019 16:00:00 26,6 14,4 8 4 WNW 1014,3 -
13.07.2019 15:00:00 27,9 12,5 8 4 W 1014,2 -
13.07.2019 14:00:00 26,1 12,1 11 6 W 1015,1 25
13.07.2019 13:00:00 25,1 12,4 11 6 W 1014,9 -
13.07.2019 12:00:00 24,9 11,3 5 3 W 1015,0 -
13.07.2019 11:00:00 23,3 12,7 13 7 W 1017,5 25
13.07.2019 10:00:00 22,0 12,5 11 6 W 1016,5 -
13.07.2019 09:00:00 19,9 12,7 11 6 W 1016,7 -
13.07.2019 08:00:00 18,8 12,0 11 6 W 1017,6 30
13.07.2019 07:00:00 18,1 12,7 8 4 W 1017,8 -
13.07.2019 06:00:00 19,1 12,6 5 3 W 1017,7 -
13.07.2019 05:00:00 19,9 12,7 9 5 W 1017,8 -
13.07.2019 04:00:00 20,5 13,0 8 4 W 1017,8 -
13.07.2019 03:00:00 21,3 13,2 8 4 W 1017,8 -
13.07.2019 02:00:00 22,7 13,5 8 4 W 1017,4 -
13.07.2019 01:00:00 23,5 12,8 4 2 W 1017,0 -
13.07.2019 00:00:00 24,6 13,6 5 3 WNW 1016,3 -
12.07.2019 23:00:00 25,8 13,2 4 2 WSW 1015,7 30
12.07.2019 22:00:00 27,5 15,6 4 2 WSW 1014,5 -
12.07.2019 21:00:00 31,3 12,6 13 7 NNE 1013,3 -
12.07.2019 20:00:00 34,0 12,9 16 9 ESE 1012,3 30
12.07.2019 19:00:00 34,6 11,5 8 4 NW 1011,8 -
12.07.2019 18:00:00 35,9 11,7 8 4 NW 1011,5 -
12.07.2019 17:00:00 35,8 9,7 8 4 W 1011,9 30
12.07.2019 16:00:00 35,5 9,2 8 4 W 1013,0 -
12.07.2019 15:00:00 33,9 6,8 5 3 W 1013,6 -
12.07.2019 14:00:00 32,4 5,7 5 3 W 1014,3 30
12.07.2019 13:00:00 30,5 7,8 8 4 W 1015,0 -
12.07.2019 12:00:00 27,8 9,5 8 4 W 1015,9 -
12.07.2019 11:00:00 25,2 10,8 9 5 W 1016,5 30
12.07.2019 10:00:00 22,7 10,7 9 5 W 1017,1 -
12.07.2019 09:00:00 20,3 11,0 9 5 W 1017,3 -
12.07.2019 08:00:00 18,7 11,3 9 5 W 1017,2 30
12.07.2019 07:00:00 17,5 10,8 9 5 W 1017,0 -
12.07.2019 06:00:00 17,8 10,9 9 5 WSW 1016,7 -
12.07.2019 05:00:00 18,7 10,9 9 5 W 1016,6 -
12.07.2019 04:00:00 19,5 11,0 9 5 W 1016,6 -
12.07.2019 03:00:00 20,6 11,7 8 4 WSW 1016,7 -
12.07.2019 02:00:00 21,2 11,5 8 4 WSW 1016,6 -
12.07.2019 01:00:00 21,5 12,8 2 1 W 1016,3 -
12.07.2019 00:00:00 23,3 12,4 4 2 WNW 1015,7 -
11.07.2019 23:00:00 23,7 15,9 0 0 N 1015,0 25
11.07.2019 22:00:00 26,4 12,7 4 2 SE 1013,4 -
11.07.2019 21:00:00 31,6 10,8 4 2 SW 1011,9 -
11.07.2019 20:00:00 33,8 11,9 5 3 WNW 1011,1 40
11.07.2019 19:00:00 34,8 11,6 5 3 N 1010,9 -
11.07.2019 18:00:00 34,4 9,4 13 7 N 1011,2 -
11.07.2019 17:00:00 34,2 10,9 9 5 NNW 1011,5 40
11.07.2019 16:00:00 34,1 11,0 5 3 WNW 1011,7 -
11.07.2019 15:00:00 32,6 10,0 9 5 W 1012,6 -
11.07.2019 14:00:00 31,4 9,6 8 4 W 1013,3 35
11.07.2019 13:00:00 29,7 8,7 5 3 W 1014,2 -
11.07.2019 12:00:00 26,9 11,9 9 5 W 1014,9 -
11.07.2019 11:00:00 24,0 12,2 11 6 WSW 1015,5 30
11.07.2019 10:00:00 21,4 12,8 9 5 W 1015,9 -
11.07.2019 09:00:00 19,2 12,4 9 5 W 1016,1 -

tt = temperature
td = dewpoint
ff = wind speed
dd = wind direction
ppp = reduced air pressure
vv = visibility

Next stations